[[{"header":{"parameterUnit":"m.s-1","parameterCategory":1,"la1":30.2992,"la2":30.254,"lo1":-89.0895,"lo2":-89.0443,"dy":0.0025,"dx":0.0025,"nx":19,"ny":19,"refTime":"2026-05-23T03:00:00:Z","depth":0,"parameterNumber":2,"parameterNumberName":"U-component_of_WINDS"},"data":[0,0,0,-1.03,-1.03,-1.0323,-1.0323,-1.0352,-1.0352,0,0,0,0,0,0,0,0,0,0,0,-1.0293,-1.0293,-1.03,-1.0301,-1.0323,-1.0323,-1.0352,-1.0352,0,0,0,0,0,0,0,0,0,0,0,-1.0293,-1.0293,-1.0293,-1.0301,-1.0323,-1.0323,-1.0352,-1.0335,0,0,0,0,0,0,0,0,0,0,-1.0313,-1.0306,-1.0293,-1.0293,-1.0301,-1.0323,-1.0323,-1.0334,-1.0336,-1.0342,0,-1.0346,0,-1.035,-1.0354,-1.0354,0,0,0,-1.0301,-1.0305,-1.0311,-1.0293,-1.0301,-1.0323,-1.0313,-1.0335,-1.0337,-1.0344,-1.0347,-1.0348,-1.035,-1.0354,-1.0354,-1.0386,-1.0386,0,0,-1.03,-1.0297,-1.031,-1.0312,-1.0308,-1.0312,-1.0314,-1.0336,-1.0339,-1.0347,-1.0348,-1.0351,-1.0354,-1.0355,-1.0386,-1.0386,0,0,0,-1.0296,-1.0296,-1.0302,-1.0311,-1.0315,-1.0313,-1.0314,-1.0338,-1.034,-1.0349,-1.0351,-1.0355,-1.0355,-1.0385,-1.0386,-1.039,0,0,0,-1.0295,-1.0294,-1.0301,-1.03,-1.0315,-1.0327,-1.0316,-1.0339,-1.0341,-1.0351,-1.0355,-1.0355,-1.0385,-1.0386,-1.0389,-1.0392,0,0,0,-1.0292,-1.0294,-1.0297,-1.03,-1.0309,-1.0327,-1.033,-1.0339,-1.0343,-1.0354,-1.0355,-1.0385,-1.0385,-1.0389,-1.0392,-1.04,0,0,0,-1.0287,-1.03,-1.0297,-1.0311,-1.0309,-1.0329,-1.033,-1.0345,-1.0355,-1.0355,-1.0385,-1.0386,-1.0389,-1.0391,-1.04,-1.0407,-1.041,0,0,-1.0302,-1.0301,-1.031,-1.0308,-1.0328,-1.0325,-1.0346,-1.0358,-1.0361,-1.0378,-1.0378,-1.0389,-1.0392,-1.04,-1.0425,-1.0427,0,0,0,-1.0314,-1.032,-1.0326,-1.0336,-1.0345,-1.0353,-1.0363,-1.0367,-1.0381,-1.0369,-1.0395,-1.0396,-1.0401,-1.0405,-1.0407,-1.0412,-1.0387,-1.0387,-1.0387,-1.033,-1.0334,-1.0349,-1.0356,-1.0365,-1.0375,-1.0383,-1.0391,-1.0392,-1.0398,-1.0403,-1.0418,-1.0422,-1.0423,-1.0428,-1.0407,-1.0407,-1.0407,-1.0407,-1.0352,-1.0362,-1.0363,-1.0378,-1.0382,-1.0395,-1.0405,-1.0406,-1.0419,-1.0414,-1.0419,-1.0414,-1.0425,-1.043,-1.0407,-1.0407,-1.0407,-1.0407,-1.0407,-1.0364,-1.0369,-1.0374,-1.0389,-1.04,-1.0406,-1.0419,-1.0422,-1.0425,-1.043,-1.0436,-1.0436,-1.0437,-1.0432,-1.0433,-1.0433,-1.0433,-1.0433,-1.0433,-1.0374,-1.038,-1.0389,-1.0401,-1.0407,-1.0417,-1.0427,-1.0434,-1.0443,-1.0444,-1.0444,-1.0446,-1.0426,-1.0421,-1.0433,-1.0433,-1.0433,-1.0433,-1.0433,-1.0395,-1.0391,-1.0406,-1.0413,-1.0427,-1.0438,-1.0442,-1.0456,-1.0462,-1.0469,-1.0469,-1.0453,-1.0454,-1.0452,-1.0448,-1.0467,-1.0467,-1.0467,-1.0467,-1.0406,-1.0406,-1.0423,-1.0433,-1.0444,-1.045,-1.0468,-1.0476,-1.0484,-1.0488,-1.0486,-1.0481,-1.0479,-1.048,-1.0478,-1.0475,-1.05,-1.05,-1.05,-1.0419,-1.0421,-1.0435,-1.0442,-1.0453,-1.0463,-1.048,-1.0493,-1.0501,-1.0502,-1.0492,-1.049,-1.0482,-1.048,-1.048,-1.0477,-1.0471,0,0]},{"header":{"parameterUnit":"m.s-1","parameterCategory":1,"la1":30.2992,"la2":30.254,"lo1":-89.0895,"lo2":-89.0443,"dy":0.0025,"dx":0.0025,"nx":19,"ny":19,"refTime":"2026-05-23T03:00:00:Z","depth":0,"parameterNumber":3,"parameterNumberName":"V-component_of_WINDS"},"data":[0,0,0,4.0071,4.0078,4.0435,4.0437,4.0866,4.0869,0,0,0,0,0,0,0,0,0,0,0,3.995,3.9952,4.007,4.0079,4.0435,4.0437,4.0865,4.0869,0,0,0,0,0,0,0,0,0,0,0,3.9949,3.9951,3.9954,4.008,4.0435,4.0437,4.0864,4.0605,0,0,0,0,0,0,0,0,0,0,4.0263,4.0136,3.9951,3.9954,4.0082,4.0434,4.0437,4.0593,4.0621,4.0693,0,4.0753,0,4.0818,4.0896,4.0898,0,0,0,4.0091,4.0112,4.0222,3.9955,4.0085,4.0434,4.0278,4.0609,4.0641,4.073,4.0759,4.0776,4.0825,4.0899,4.0901,4.1277,4.1278,0,0,4.0071,4.0005,4.02,4.0242,4.0186,4.0266,4.0289,4.0629,4.0656,4.0761,4.0787,4.0832,4.0902,4.0905,4.1276,4.1277,0,0,0,4.0007,3.9991,4.0094,4.0224,4.029,4.0276,4.0302,4.0641,4.068,4.0791,4.0837,4.0904,4.0909,4.1275,4.1277,4.1271,0,0,0,3.9995,3.9954,4.0084,4.0048,4.0283,4.047,4.0306,4.0656,4.0697,4.0835,4.0904,4.0913,4.1274,4.1276,4.1269,4.128,0,0,0,3.9932,3.9946,3.9992,4.0043,4.0194,4.0466,4.0525,4.0667,4.0724,4.0898,4.0914,4.1273,4.1275,4.1267,4.1276,4.1359,0,0,0,3.9845,3.9983,3.9991,4.0163,4.0191,4.046,4.0524,4.0728,4.0876,4.0906,4.1274,4.1276,4.1266,4.1274,4.1356,4.1416,4.1435,0,0,3.9982,3.9997,4.0104,4.0122,4.0372,4.0411,4.0663,4.0861,4.0938,4.1159,4.117,4.127,4.1276,4.1358,4.1566,4.158,0,0,0,4.0125,4.02,4.0281,4.042,4.0575,4.0708,4.0876,4.0949,4.1141,4.1038,4.1325,4.133,4.1381,4.1413,4.1425,4.1473,4.1288,4.1288,4.1288,4.0224,4.0315,4.0497,4.0631,4.0764,4.0935,4.1052,4.118,4.1234,4.1299,4.1365,4.148,4.1515,4.1525,4.1573,4.1405,4.1405,4.1405,4.1405,4.0433,4.0554,4.0621,4.0821,4.0916,4.1086,4.1256,4.1288,4.1459,4.1438,4.1488,4.1455,4.1538,4.1585,4.1406,4.1406,4.1406,4.1406,4.1406,4.0507,4.0581,4.0668,4.0877,4.1029,4.116,4.1321,4.1403,4.1481,4.153,4.1608,4.1608,4.1618,4.1561,4.1562,4.1562,4.1562,4.1563,4.1563,4.0549,4.0648,4.0774,4.095,4.1049,4.119,4.1364,4.1464,4.1596,4.1642,4.1644,4.1689,4.1529,4.1486,4.157,4.1568,4.1568,4.1567,4.1567,4.0725,4.0698,4.0892,4.0992,4.1205,4.1349,4.1452,4.1649,4.1744,4.182,4.1857,4.1725,4.1746,4.1737,4.1702,4.1837,4.1837,4.1837,4.1837,4.0787,4.0806,4.1022,4.1176,4.1336,4.1448,4.1664,4.18,4.1937,4.2001,4.1994,4.1955,4.1942,4.1971,4.1957,4.1926,4.2114,4.2114,4.2114,4.09,4.0938,4.1106,4.1239,4.1412,4.1558,4.1764,4.1938,4.2087,4.2127,4.2053,4.2041,4.198,4.1955,4.1992,4.1968,4.1912,0,0]}]]